Siloam Springs, AR

3:27 PM CDT on September 20, 2017 (GMT -0500)
Smith

Weather History for KSLG - May, 2014

Change the Weather History Date:

Tuesday, May 6, 2014

  Actual Average Record
Temperature  
Mean Temperature 73 °F -  
Max Temperature 84 °F 72 °F 87 °F (2007)
Min Temperature 62 °F 52 °F 39 °F (2011)
Cooling Degree Days 8    
Growing Degree Days 23 (Base 50)    
Moisture  
Dew Point 58 °F    
Average Humidity 54    
Maximum Humidity 68    
Minimum Humidity 45    
Precipitation  
Precipitation 0.00 in - - ()
Sea Level Pressure  
Sea Level Pressure 29.74 in    
Wind  
Wind Speed 14 mph (South)    
Max Wind Speed 23 mph    
Max Gust Speed 29 mph    
Visibility 10 miles    
Events      
Averages and records for this station are not official NWS values.
T = Trace of Precipitation, MM = Missing Value Source: NWS Daily Summary

Daily Weather History Graph

Daily Weather History Graph

Search for Another Location

Airport or City:

Trip Planner

Search our weather history database for the weather conditions in past years. The results will help you decide how hot, cold, wet, or windy it might be!

Date:

Astronomy

May. 06, 2014 Rise Set
Actual Time 6:19 AM CDT 8:09 PM CDT
Civil Twilight 5:51 AM CDT 8:37 PM CDT
Nautical Twilight 5:18 AM CDT 9:11 PM CDT
Astronomical Twilight 4:42 AM CDT 9:47 PM CDT
Moon 12:34 PM CDT (5/6) 1:31 AM CDT (5/6)
Length of Visible Light 14h 45m
Length of Day
13h 50m
Waxing Crescent, 46% of the Moon is Illuminated
May 6
Waxing Crescent
May 6
First Quarter
May 14
Full
May 21
Last Quarter
May 28
New

Hourly Weather History & Observations

Time (CDT) Temp. Heat Index Dew Point Humidity Pressure Visibility Wind Dir Wind Speed Gust Speed Precip Events Conditions
12:15 AM 68.0 °F - 53.6 °F 60% 29.80 in 10.0 mi South 8.1 mph - N/A   Clear
12:35 AM 66.2 °F - 53.6 °F 64% 29.80 in 10.0 mi South 8.1 mph - N/A   Clear
12:55 AM 66.2 °F - 53.6 °F 64% 29.80 in 10.0 mi South 6.9 mph - N/A   Clear
1:15 AM 64.4 °F - 51.8 °F 64% 29.80 in 10.0 mi South 8.1 mph - N/A   Clear
1:35 AM 62.6 °F - 51.8 °F 68% 29.80 in 10.0 mi SSW 10.4 mph - N/A   Clear
1:55 AM 64.4 °F - 51.8 °F 64% 29.78 in 10.0 mi South 11.5 mph - N/A   Clear
2:15 AM 62.6 °F - 51.8 °F 68% 29.79 in 10.0 mi South 8.1 mph - N/A   Clear
2:35 AM 64.4 °F - 51.8 °F 64% 29.78 in 10.0 mi South 11.5 mph - N/A   Clear
2:55 AM 64.4 °F - 51.8 °F 64% 29.78 in 10.0 mi South 8.1 mph - N/A   Clear
6:55 AM 66.2 °F - 51.8 °F 60% 29.75 in 10.0 mi South 11.5 mph 16.1 mph N/A   Clear
7:15 AM 66.2 °F - 51.8 °F 60% 29.76 in 10.0 mi South 13.8 mph - N/A   Clear
7:35 AM 66.2 °F - 51.8 °F 60% 29.76 in 10.0 mi South 12.7 mph - N/A   Clear
7:55 AM 68.0 °F - 53.6 °F 60% 29.77 in 10.0 mi South 17.3 mph - N/A   Clear
8:15 AM 69.8 °F - 53.6 °F 56% 29.77 in 10.0 mi South 16.1 mph 19.6 mph N/A   Clear
9:15 AM 71.6 °F - 55.4 °F 57% 29.77 in 10.0 mi South 18.4 mph 24.2 mph N/A   Clear
9:35 AM 73.4 °F - 55.4 °F 53% 29.76 in 10.0 mi South 20.7 mph 25.3 mph N/A   Clear
9:55 AM 73.4 °F - 57.2 °F 57% 29.76 in 10.0 mi SSW 18.4 mph 23.0 mph N/A   Clear
10:15 AM 75.2 °F - 57.2 °F 53% 29.76 in 10.0 mi SSW 23.0 mph 27.6 mph N/A   Clear
10:35 AM 77.0 °F - 57.2 °F 50% 29.76 in 10.0 mi South 19.6 mph 28.8 mph N/A   Clear
10:55 AM 78.8 °F - 57.2 °F 47% 29.76 in 10.0 mi SSW 20.7 mph 27.6 mph N/A   Clear
11:15 AM 78.8 °F - 59.0 °F 51% 29.76 in 10.0 mi South 19.6 mph 25.3 mph N/A   Clear
11:35 AM 78.8 °F - 59.0 °F 51% 29.76 in 10.0 mi South 18.4 mph - N/A   Clear
11:55 AM 80.6 °F 81.1 °F 59.0 °F 48% 29.76 in 10.0 mi South 17.3 mph 21.9 mph N/A   Clear
12:15 PM 80.6 °F 81.1 °F 59.0 °F 48% 29.76 in 10.0 mi South 15.0 mph - N/A   Clear
12:35 PM 80.6 °F 81.5 °F 60.8 °F 51% 29.75 in 10.0 mi SSW 21.9 mph 27.6 mph N/A   Clear
12:55 PM 82.4 °F 82.9 °F 60.8 °F 48% 29.74 in 10.0 mi SSW 21.9 mph 26.5 mph N/A   Clear
1:15 PM 82.4 °F 82.9 °F 60.8 °F 48% 29.74 in 10.0 mi SSW 20.7 mph 25.3 mph N/A   Clear
1:35 PM 82.4 °F 82.9 °F 60.8 °F 48% 29.74 in 10.0 mi South 19.6 mph 26.5 mph N/A   Clear
1:55 PM 82.4 °F 82.9 °F 60.8 °F 48% 29.73 in 10.0 mi South 16.1 mph 27.6 mph N/A   Clear
2:15 PM 84.2 °F 84.4 °F 60.8 °F 45% 29.73 in 10.0 mi South 19.6 mph 24.2 mph N/A   Clear
2:35 PM 84.2 °F 85.0 °F 62.6 °F 48% 29.73 in - SSE 17.3 mph 25.3 mph N/A   Clear
2:55 PM 84.2 °F 85.0 °F 62.6 °F 48% 29.72 in 10.0 mi South 18.4 mph 25.3 mph N/A   Clear
3:15 PM 84.2 °F 85.0 °F 62.6 °F 48% 29.71 in 10.0 mi South 16.1 mph 23.0 mph N/A   Clear
3:35 PM 84.2 °F 85.0 °F 62.6 °F 48% 29.71 in 10.0 mi South 19.6 mph 27.6 mph N/A   Clear
3:55 PM 84.2 °F 85.0 °F 62.6 °F 48% 29.70 in 10.0 mi South 18.4 mph 21.9 mph N/A   Clear
4:15 PM 84.2 °F 85.0 °F 62.6 °F 48% 29.70 in 10.0 mi SSE 19.6 mph 26.5 mph N/A   Clear
4:35 PM 84.2 °F 85.0 °F 62.6 °F 48% 29.69 in 10.0 mi South 19.6 mph 26.5 mph N/A   Clear
4:55 PM 84.2 °F 84.4 °F 60.8 °F 45% 29.69 in 10.0 mi South 17.3 mph 24.2 mph N/A   Clear
5:15 PM 84.2 °F 84.4 °F 60.8 °F 45% 29.69 in - South 19.6 mph 23.0 mph N/A   Clear
5:35 PM 84.2 °F 84.4 °F 60.8 °F 45% 29.69 in 10.0 mi South 18.4 mph 26.5 mph N/A   Clear
5:55 PM 82.4 °F 82.9 °F 60.8 °F 48% 29.69 in 10.0 mi South 16.1 mph 20.7 mph N/A   Clear
6:15 PM 82.4 °F 82.9 °F 60.8 °F 48% 29.68 in 10.0 mi South 15.0 mph 23.0 mph N/A   Clear
6:35 PM 80.6 °F 81.5 °F 60.8 °F 51% 29.68 in 10.0 mi South 15.0 mph 24.2 mph N/A   Clear
6:55 PM 80.6 °F 81.5 °F 60.8 °F 51% 29.69 in 10.0 mi South 19.6 mph 24.2 mph N/A   Clear
7:15 PM 78.8 °F - 60.8 °F 54% 29.69 in 10.0 mi SSE 16.1 mph 23.0 mph N/A   Clear
7:35 PM 78.8 °F - 60.8 °F 54% 29.69 in 10.0 mi South 11.5 mph 21.9 mph N/A   Clear
7:55 PM 77.0 °F - 59.0 °F 54% 29.70 in 10.0 mi South 12.7 mph 23.0 mph N/A   Clear
8:15 PM 75.2 °F - 59.0 °F 57% 29.71 in 10.0 mi South 11.5 mph - N/A   Clear
8:35 PM 75.2 °F - 59.0 °F 57% 29.72 in 10.0 mi South 13.8 mph 20.7 mph N/A   Clear
8:55 PM 75.2 °F - 57.2 °F 53% 29.72 in 10.0 mi South 11.5 mph 18.4 mph N/A   Clear
9:15 PM 75.2 °F - 57.2 °F 53% 29.72 in 10.0 mi South 13.8 mph 21.9 mph N/A   Clear
9:35 PM 73.4 °F - 57.2 °F 57% 29.73 in 10.0 mi South 13.8 mph 18.4 mph N/A   Clear
9:55 PM 73.4 °F - 57.2 °F 57% 29.75 in 10.0 mi South 13.8 mph - N/A   Clear
10:15 PM 73.4 °F - 57.2 °F 57% 29.76 in 10.0 mi South 18.4 mph - N/A   Clear
10:35 PM 73.4 °F - 57.2 °F 57% 29.76 in 10.0 mi South 17.3 mph 24.2 mph N/A   Clear
10:55 PM 71.6 °F - 57.2 °F 60% 29.76 in 10.0 mi South 15.0 mph 23.0 mph N/A   Clear
11:15 PM 71.6 °F - 57.2 °F 60% 29.76 in 10.0 mi South 13.8 mph 19.6 mph N/A   Clear
11:35 PM 71.6 °F - 57.2 °F 60% 29.77 in 10.0 mi South 16.1 mph - N/A   Clear
11:55 PM 71.6 °F - 57.2 °F 60% 29.76 in 10.0 mi South 13.8 mph 18.4 mph N/A   Clear